This is the latest recevied weather packets stored in our database for station/object SP6PWT-13. If no packets are shown the sender has not sent any weather packets the latest 10 day(s).
| Time | Temp. | Humidity | Pressure | Rain* | Wind** | Luminosity | Snow |
|---|---|---|---|---|---|---|---|
| 1777785057 | 12.22° C | 61% | 1000.9 hPa | 0 mm | - | 40 W/m² | - |
| 1777784746 | 12.22° C | 62% | 1000.9 hPa | 0 mm | - | 38 W/m² | - |
| 1777784445 | 12.22° C | 62% | 1000.9 hPa | 0 mm | - | 38 W/m² | - |
| 1777784144 | 11.67° C | 62% | 1000.8 hPa | 0 mm | - | 72 W/m² | - |
| 1777783844 | 11.67° C | 62% | 1000.7 hPa | 0 mm | - | 70 W/m² | - |
| 1777783543 | 11.67° C | 63% | 1000.7 hPa | 0 mm | - | 66 W/m² | - |
| 1777783232 | 11.67° C | 63% | 1000.9 hPa | 0 mm | - | 60 W/m² | - |
| 1777782932 | 11.11° C | 63% | 1000.8 hPa | 0 mm | - | 55 W/m² | - |
| 1777782621 | 11.11° C | 63% | 1000.8 hPa | 0 mm | - | 50 W/m² | - |
| 1777782321 | 11.11° C | 63% | 1000.9 hPa | 0 mm | - | 45 W/m² | - |
| 1777782020 | 11.11° C | 64% | 1000.8 hPa | 0 mm | - | 41 W/m² | - |
| 1777781720 | 11.11° C | 64% | 1000.8 hPa | 0 mm | - | 37 W/m² | - |
| 1777781419 | 10.56° C | 64% | 1000.9 hPa | 0 mm | - | 32 W/m² | - |
| 1777781119 | 10.56° C | 64% | 1000.8 hPa | 0 mm | - | 27 W/m² | - |
| 1777780819 | 10.56° C | 64% | 1000.8 hPa | 0 mm | - | 24 W/m² | - |
| 1777780508 | 10.56° C | 64% | 1001 hPa | 0 mm | - | 20 W/m² | - |
| 1777780208 | 11.11° C | 64% | 1000.7 hPa | 0 mm | - | 17 W/m² | - |
| 1777779907 | 10.56° C | 64% | 1001 hPa | 0 mm | - | 14 W/m² | - |
| 1777779607 | 10.56° C | 64% | 1000.8 hPa | 0 mm | - | 11 W/m² | - |
| 1777779307 | 11.11° C | 63% | 1000.8 hPa | 0 mm | - | 8 W/m² | - |
| 1777779006 | 11.11° C | 62% | 1000.8 hPa | 0 mm | - | 6 W/m² | - |
| 1777778705 | 11.11° C | 62% | 1000.9 hPa | 0 mm | - | 4 W/m² | - |
| 1777778404 | 11.67° C | 61% | 1001 hPa | 0 mm | - | 2 W/m² | - |
| 1777778104 | 11.67° C | 60% | 1000.9 hPa | 0 mm | - | 1 W/m² | - |
| 1777777803 | 11.67° C | 60% | 1001.1 hPa | 0 mm | - | 0 W/m² | - |
* Rain latest hour (hover to see other rain measurements)
** Current wind speed in m/s (hover to see current wind gust speed)